Location: Park Creek Village Mobile Home Park
(38.2885°N, 122.4714°W)
Time: 23:29:33
(UTC+00:00)

Daily predictions for brighter satellites

Satellite Brightness Start Highest point End
(mag) Time Altitude Azimuth Time Altitude Azimuth Time Altitude Azimuth
Cosmos 2263 Rocket 4.0 12:26:39 20° NNE 12:26:39 20° NNE 12:28:20 10° NNE
Meteor 1-20 Rocket 4.3 12:36:12 10° S 12:42:01 77° E 12:47:52 10° NNE
USA 234 3.1 12:35:40 10° NE 12:42:14 90° NW 12:43:03 71° SW
Cosmos 1844 Rocket 4.5 12:49:22 10° SSE 12:54:10 30° ESE 12:58:58 10° NE
CZ-4C R/B 3.8 13:02:53 32° SW 13:02:53 32° SW 13:08:50 10° S
Cosmos 2026 Rocket 4.1 12:59:09 10° N 13:05:23 77° E 13:11:41 10° S
STARLINK 1039 4.5 13:11:57 37° SSE 13:11:57 37° SSE 13:14:22 10° SE
STARLINK 1045 4.4 13:14:09 38° SSE 13:14:09 38° SSE 13:16:39 10° SE
Cosmos 2279 Rocket 4.3 13:07:39 10° S 13:13:46 67° E 13:19:58 10° NNE
Cosmos 1943 3.2 13:17:05 54° WNW 13:17:45 58° WSW 13:23:13 10° S
FALCON 9 R/B 3.6 13:21:00 33° WSW 13:24:53 73° S 13:50:54 10° ESE
Cosmos 1110 Rocket 4.0 13:20:22 10° SSW 13:25:32 81° ESE 13:30:44 10° NNE
NOSS 3-2 (A) 4.0 13:20:15 10° SSW 13:25:40 53° ESE 13:31:42 10° NE
Cosmos 332 Rocket 4.2 13:21:22 10° S 13:26:12 65° ESE 13:31:05 10° NNE
Meteor 1-18 Rocket 4.1 13:22:44 21° NNW 13:26:32 73° W 13:32:06 10° S
Cosmos 1634 Rocket 4.0 13:21:23 10° SSW 13:27:26 56° W 13:33:31 10° N
COSMO-SKYMED 1 2.5 13:23:40 10° SSE 13:27:59 84° ENE 13:30:42 23° N
Helios 1A Rocket 4.0 13:28:40 10° NNE 13:32:32 45° E 13:36:23 10° S
Cosmos 44 3.6 13:37:22 38° NW 13:37:22 38° NW 13:41:22 10° NNE
USA 238 DEB 3.8 13:30:55 10° SSW 13:37:32 78° ESE 13:44:22 10° NE
USA 238 3.8 13:31:02 10° SSW 13:37:38 77° ESE 13:44:27 10° NE
CENTAUR R/B 4.3 13:34:10 10° S 13:39:06 30° ESE 13:44:37 10° NE
Cosmos 1733 Rocket 3.4 13:34:58 10° S 13:39:15 66° E 13:43:32 10° NNE
PSLV R/B 3.6 13:43:53 36° SSE 13:43:53 36° SSE 13:45:40 10° SE
Meteor 1-11 Rocket 4.4 13:40:03 10° S 13:45:40 59° E 13:51:26 10° NNE
Cosmos 371 Rocket 3.2 13:41:19 10° SSW 13:46:05 62° WNW 13:50:56 10° NNE
PAYLOAD B 4.1 13:42:01 10° NNE 13:47:34 82° WNW 13:53:07 10° SSW
Cosmos 2221 Rocket 3.5 13:44:02 14° NNW 13:47:44 69° W 13:52:07 10° S
ALOS 2.2 13:46:36 10° N 13:51:13 64° WNW 13:55:50 10° SSW
GEOS 3 Rocket 3.6 13:49:38 10° SE 13:54:43 83° NE 13:59:04 15° NNW
Meteor 1-5 Rocket 4.3 13:49:51 10° S 13:55:48 89° E 14:01:40 10° N
Okean O Rocket 1.5 13:54:28 10° N 13:58:53 77° WNW 14:03:17 10° SSW
Cosmos 1655 Rocket 3.9 13:52:44 10° N 13:58:59 85° W 14:05:13 10° S
Meteor 2-13 Rocket 4.4 13:53:01 10° N 13:59:11 82° W 14:05:20 10° S
Cosmos 1741 Rocket 4.5 13:58:26 20° NW 14:01:29 39° WSW 14:06:17 10° S
Meteor 2-4 Rocket 3.5 13:59:37 10° NNW 14:05:02 72° W 14:10:21 10° S
Cosmos 2278 Rocket 4.5 14:01:20 10° SSE 14:06:02 27° ESE 14:10:44 10° NE
Cosmos 2263 Rocket 3.9 14:08:25 13° NW 14:08:25 13° NW 14:10:16 10° NNW
Cosmos 1674 Rocket 3.6 14:08:33 10° N 14:12:54 83° E 14:17:12 10° S
Cosmos 405 2.9 14:09:34 10° N 14:13:06 84° W 14:16:36 10° S
SJ-7 4.3 14:15:19 10° N 14:19:15 62° WNW 14:23:10 10° SSW
Cosmos 1302 Rocket 4.0 14:15:14 10° SSW 14:20:29 69° WNW 14:25:47 10° NNE
ATLAS CENTAUR R/B 2.8 14:17:45 10° NNW 14:21:30 32° NE 14:24:59 10° ESE
USA 234 4.1 14:19:10 10° NNE 14:24:43 31° NNW 14:30:15 10° W
FENGYUN 3A 4.2 14:20:22 10° N 14:25:14 36° WNW 14:30:04 10° SW
CZ-4 R/B 4.5 14:23:40 10° NE 14:26:10 16° E 14:28:41 10° SE
ATLAS 3B R/B 3.4 14:20:08 10° SSW 14:26:44 58° ESE 14:33:15 10° NE
GPS 2-04 Rocket1 3.2 14:24:11 10° WSW 14:28:01 55° S 14:32:00 10° E
NOSS 3-2 (C) 3.3 14:22:44 10° SW 14:28:24 83° WNW 14:34:46 10° NNE
Cosmos 1378 Rocket 3.6 14:25:10 10° N 14:29:37 89° W 14:34:03 10° S
Cosmos 44 Rocket 3.3 14:25:59 10° SW 14:30:50 61° WNW 14:35:36 10° NNE
Cosmos 1743 4.4 14:28:59 10° SSE 14:32:29 36° E 14:36:00 10° NNE
H-2A R/B 2.7 14:28:54 10° N 14:32:41 86° WNW 14:36:30 10° SSW
Cosmos 1536 3.1 14:29:44 10° SSW 14:33:40 48° W 14:37:37 10° N
Cosmos 2266 Rocket 4.0 14:29:12 10° NNW 14:35:18 65° W 14:41:17 10° S
Cosmos 1844 Rocket 3.2 14:32:52 10° SW 14:37:55 34° WNW 14:42:59 10° N
Cosmos 304 Rocket 4.2 14:36:51 10° SW 14:41:20 40° WNW 14:45:51 10° N
CZ-2C R/B 4.5 14:39:25 10° SSE 14:44:04 59° ENE 14:48:46 10° N
Cosmos 1844 4.2 14:40:32 10° SW 14:45:54 39° WNW 14:51:17 10° N
COSMOS 2406 3.7 14:44:54 10° NNW 14:50:33 63° ENE 14:56:09 10° SSE
CZ-4B R/B 4.0 14:46:04 10° N 14:50:57 31° WNW 14:55:52 10° SW
